Wetbulb
36.70 36.75 36.70 36.30 35.99 35.96 36.10 36.19 35.85 35.92 36.22 36.50 36.39 36.46 36.49 36.80 36.78 37.03 37.41 37.96 38.03 38.21 38.67 39.21 39.69 40.34 41.11 41.49 42.06 42.63 43.00 43.04 43.41 43.37 43.53 44.34 45.24 45.80 46.20 46.51 46.95 47.26 47.33 47.31 47.25 47.11 47.10 47.29 47.53 47.88 48.29 48.72 49.23 49.64 50.07 50.63 50.69 50.62 50.54 50.38 50.65 51.10 51.61 52.27 52.89 53.55 54.16 54.65 54.89
36.12 35.91 35.62 34.99 34.99 35.12 35.27 35.26 35.34 35.65 35.90 36.14 36.28 36.33 36.34 36.37 36.47 36.64 37.22 37.63 37.90 38.15 38.53 39.12 39.66 40.51 41.20 41.24 41.77 42.14 42.39 42.47 42.80 43.38 43.99 44.35 44.71 45.07 45.41 45.49 46.09 46.44 46.70 47.10 47.34 47.29 47.32 47.52 47.31 47.13 47.13 47.53 48.00 48.53 49.48 50.69 51.21 51.12 50.65 50.52 50.38 50.51 50.79 51.15 51.89 52.79 53.76 54.33 54.95
35.52 35.30 35.05 34.88 34.82 34.78 34.70 34.65 35.05 35.23 35.42 35.65 35.93 36.12 36.11 36.19 36.29 36.53 36.86 37.28 37.96 38.30 38.56 38.72 39.68 40.37 40.82 41.07 41.26 41.46 41.75 42.00 42.34 43.01 43.80 44.63 45.14 45.35 45.37 44.95 45.29 45.64 45.95 46.12 46.55 46.76 47.01 47.44 47.27 47.10 46.97 47.12 47.25 47.54 48.29 49.53 50.20 50.37 50.38 50.70 50.36 50.36 50.54 50.59 51.15 51.89 52.75 53.60 54.60
35.21 34.80 34.48 34.35 34.20 34.17 34.21 34.34 34.69 34.88 35.12 35.30 35.72 35.91 35.92 36.09 36.25 36.57 37.03 37.57 37.89 38.07 38.37 38.43 39.07 39.50 39.78 40.01 40.40 40.71 41.05 41.13 41.34 41.63 42.23 43.00 43.64 43.72 43.97 44.02 44.06 44.53 45.17 45.95 46.30 46.65 46.86 47.02 47.03 47.25 47.42 47.60 48.20 48.40 48.66 49.28 49.60 49.49 49.63 50.02 50.05 50.16 50.25 50.45 51.19 51.79 52.35 52.71 53.78
34.72 34.39 34.02 33.86 33.96 34.14 34.41 34.73 34.73 34.81 34.91 35.24 35.30 35.44 35.66 36.00 36.41 36.67 37.07 37.31 37.29 37.51 37.88 38.40 38.34 38.54 38.94 39.19 39.47 39.79 39.98 40.11 39.72 40.32 41.26 41.95 42.42 42.59 42.76 42.76 42.76 42.96 43.38 44.14 45.00 46.09 46.84 47.27 47.14 47.27 47.56 47.80 47.71 48.01 48.43 48.86 48.99 48.99 48.97 49.23 49.58 49.80 50.12 50.47 51.08 51.64 52.02 52.21 52.86
34.27 33.93 33.71 33.78 34.01 34.25 34.43 34.50 34.57 34.58 34.81 35.07 34.88 34.97 35.26 35.91 36.31 36.36 36.35 36.38 36.50 36.92 37.31 37.33 37.41 37.65 38.12 38.73 39.15 39.21 39.18 39.24 39.54 39.95 40.48 41.21 41.89 42.59 43.08 43.53 43.26 43.18 43.08 43.25 43.79 44.69 45.60 46.57 47.11 47.51 47.82 48.15 47.97 48.15 48.43 48.37 48.01 48.07 48.23 48.48 49.13 49.40 49.59 49.99 50.41 51.00 51.39 51.72 52.37
33.67 33.50 33.32 33.52 33.99 34.08 34.06 34.25 34.43 34.66 34.81 34.91 34.95 35.24 35.47 35.84 35.96 36.04 35.99 36.04 36.09 36.27 36.21 36.02 36.29 36.58 36.93 37.57 37.91 38.21 38.42 38.59 39.45 39.90 40.25 40.45 41.04 41.44 41.72 42.30 42.88 43.38 43.64 43.68 43.80 44.10 44.56 45.38 46.26 46.84 47.24 47.33 47.95 48.17 48.32 48.18 47.76 47.55 47.53 47.86 48.53 48.94 49.46 50.42 50.26 50.33 50.74 51.48 52.18
33.44 33.20 33.19 33.29 33.54 33.73 33.93 34.02 34.18 34.23 34.38 34.60 35.10 35.54 35.79 35.98 35.64 35.55 35.42 35.42 35.47 35.55 35.73 35.68 36.08 36.30 36.47 36.74 37.25 37.59 37.87 38.18 38.74 39.33 39.80 40.01 40.42 40.90 41.37 41.63 41.87 42.60 43.41 44.00 44.14 44.35 44.52 44.99 45.59 46.26 46.88 47.51 47.92 48.49 48.78 48.61 48.26 47.62 47.24 47.17 47.92 48.56 49.04 49.48 49.80 50.09 50.41 51.10 51.69
33.39 33.30 33.25 33.15 33.10 33.20 33.56 33.83 34.06 34.10 34.10 34.50 35.05 35.31 35.48 35.50 35.02 34.75 34.53 34.37 34.57 34.96 35.54 35.68 35.91 36.09 36.37 36.75 36.81 36.99 37.29 37.58 37.94 38.50 39.08 39.76 40.34 40.74 40.98 41.09 41.41 41.79 42.34 43.17 43.60 44.04 44.47 44.95 45.37 45.86 46.44 47.06 47.69 48.50 49.12 49.37 48.88 48.28 47.68 47.08 47.62 48.30 49.17 49.99 50.11 50.52 50.81 50.59 51.11
33.10 32.95 32.83 32.56 32.68 32.95 33.39 33.72 33.97 34.09 34.27 34.47 34.86 35.02 34.81 34.29 34.11 34.00 34.11 34.07 34.34 34.58 34.82 35.12 35.29 35.39 35.59 35.69 35.88 36.20 36.71 37.22 37.67 38.16 38.56 38.79 39.32 39.69 40.10 40.48 40.88 41.09 41.48 42.17 42.69 43.12 43.69 44.12 44.59 45.11 45.64 46.22 46.75 47.64 48.62 49.24 49.07 48.89 48.69 48.25 47.95 48.17 48.77 49.57 50.29 50.90 51.04 50.46 51.07
32.95 32.76 32.50 32.23 32.55 33.03 33.30 33.19 33.39 33.77 34.04 34.11 34.36 34.32 33.93 33.45 33.50 33.74 33.95 33.96 33.96 33.95 33.96 34.30 34.54 34.65 34.66 34.81 35.18 35.66 36.21 36.79 37.21 37.58 37.79 37.98 38.24 38.85 39.57 40.11 40.33 40.68 41.04 41.60 42.08 42.51 42.77 43.16 43.63 44.24 44.85 45.25 45.87 46.57 47.42 48.40 48.71 48.94 48.89 49.13 49.05 48.71 48.62 48.97 49.80 50.66 51.08 51.12 51.74
32.93 32.78 32.64 32.69 33.03 33.03 32.88 32.51 32.65 32.92 33.22 33.29 33.34 33.34 33.19 33.16 33.14 33.30 33.35 33.25 33.15 33.30 33.58 34.06 34.07 34.12 34.13 34.31 34.64 35.04 35.40 36.17 36.58 36.82 37.08 37.43 37.99 38.40 38.84 39.26 39.84 40.38 40.76 41.13 41.73 41.98 42.23 42.68 43.03 43.57 44.01 44.72 45.42 46.31 47.06 47.86 48.27 48.58 48.76 49.06 49.49 49.38 49.05 48.94 49.21 49.81 50.63 51.36 51.93
32.95 32.66 32.73 33.09 33.05 32.69 32.34 32.15 32.17 32.34 32.49 32.56 32.56 32.44 32.24 32.35 32.53 32.60 32.60 32.63 32.70 32.93 33.22 33.66 33.74 33.76 33.78 33.86 34.27 34.60 35.03 35.46 35.98 36.23 36.53 36.97 37.44 37.69 38.01 38.80 39.35 40.01 40.46 40.76 41.30 41.67 41.95 42.36 42.85 43.29 43.64 44.18 45.15 45.99 46.75 47.46 47.91 48.22 48.36 48.58 48.84 49.14 49.48 49.85 49.50 49.56 49.95 50.75 51.74
32.88 32.67 32.59 32.74 32.62 32.45 32.28 32.25 32.03 32.05 32.04 32.04 32.11 31.85 31.63 31.72 31.94 32.05 32.11 32.21 32.37 32.61 32.86 33.14 33.29 33.42 33.51 33.66 33.86 34.17 34.58 34.82 35.25 35.60 35.93 36.33 36.71 37.17 37.61 38.12 38.87 39.38 39.84 40.36 41.10 41.63 41.91 42.10 42.58 43.02 43.33 43.86 44.53 45.33 46.13 46.93 47.60 48.18 48.36 48.49 48.53 48.93 49.49 50.18 50.35 50.06 49.84 49.99 50.98
32.74 32.64 32.55 32.41 32.33 32.21 32.12 32.05 31.75 31.70 31.67 31.58 31.51 31.33 31.15 31.15 31.34 31.58 31.81 31.90 32.08 32.30 32.45 32.53 32.56 32.96 33.35 33.74 33.86 33.94 34.33 34.51 34.77 35.16 35.49 35.84 36.46 36.96 37.45 37.80 38.35 38.73 39.27 40.03 40.92 41.49 41.91 42.12 42.59 42.94 43.24 43.50 44.04 44.75 45.37 46.22 47.15 48.00 48.45 48.72 48.80 49.02 49.50 50.01 51.10 51.04 50.56 50.09 50.10
32.43 32.34 32.26 32.08 32.00 31.91 31.88 31.61 31.34 31.23 31.10 31.04 31.06 31.01 30.85 30.82 31.06 31.32 31.36 31.52 31.58 31.81 31.92 32.06 32.13 32.48 32.96 33.53 33.78 33.93 34.03 34.27 34.54 34.78 35.03 35.49 36.14 36.73 37.23 37.63 38.10 38.59 39.23 39.91 40.73 41.40 41.91 42.35 42.60 42.90 43.20 43.38 43.86 44.31 44.93 45.64 46.66 47.69 48.54 49.25 49.38 49.51 49.82 50.25 51.25 51.64 51.47 50.63 50.10
32.19 32.01 32.00 31.89 31.73 31.49 31.39 31.19 31.00 30.79 30.70 30.70 30.83 30.78 30.67 30.59 30.83 30.94 31.02 31.03 31.17 31.27 31.35 31.66 31.74 31.90 32.31 32.74 33.37 33.67 33.68 34.00 34.23 34.39 34.70 35.11 35.69 36.31 36.81 37.22 37.82 38.40 39.08 39.79 40.46 41.09 41.69 42.22 42.65 42.95 43.17 43.38 43.77 44.13 44.66 45.29 46.13 47.24 48.49 49.57 49.92 50.31 50.62 50.56 51.23 51.75 51.93 51.22 50.66
31.98 31.72 31.63 31.58 31.38 31.14 30.95 30.80 30.68 30.66 30.58 30.57 30.59 30.58 30.55 30.53 30.62 30.68 30.80 30.97 31.03 31.00 31.00 31.27 31.62 31.74 31.84 32.17 32.77 33.25 33.52 33.79 34.00 34.26 34.52 34.91 35.49 35.98 36.48 37.06 37.73 38.33 38.90 39.55 40.15 40.79 41.43 41.87 42.40 42.82 43.12 43.47 43.86 44.22 44.75 45.29 45.95 46.93 48.18 49.47 50.37 51.03 51.51 51.63 51.72 51.81 51.72 51.27 50.83
31.58 31.40 31.23 31.05 30.95 30.77 30.60 30.44 30.44 30.44 30.58 30.49 30.41 30.47 30.47 30.64 30.69 30.70 30.83 31.07 30.97 30.94 30.97 31.03 31.38 31.69 31.85 32.00 32.52 32.94 33.19 33.70 33.94 34.18 34.56 34.93 35.40 35.82 36.34 36.91 37.57 38.21 38.82 39.30 39.90 40.69 41.22 41.66 41.96 42.48 42.95 43.38 43.95 44.57 45.11 45.55 45.99 46.75 47.64 48.89 50.14 51.29 52.13 52.51 52.47 52.11 51.63 51.45 51.18
31.14 31.03 30.86 30.81 30.63 30.54 30.37 30.28 30.44 30.53 30.44 30.24 30.30 30.40 30.49 30.68 30.80 30.76 30.74 30.78 30.95 31.06 31.17 31.11 31.28 31.56 31.78 32.05 32.35 32.70 33.09 33.57 33.94 34.20 34.60 35.01 35.31 35.82 36.19 36.77 37.34 38.09 38.73 39.52 39.87 40.58 41.09 41.38 41.56 41.95 42.42 43.02 43.68 44.39 45.19 45.82 46.17 46.80 47.42 48.35 49.78 51.12 52.22 52.88 53.08 52.81 52.11 51.66 51.67
30.88 30.71 30.69 30.63 30.46 30.28 30.20 30.20 30.37 30.46 30.51 30.24 30.43 30.43 30.49 30.40 30.56 30.57 30.58 30.61 30.80 31.08 31.19 31.12 31.19 31.47 31.68 31.88 32.19 32.53 32.87 33.19 33.70 34.11 34.56 34.89 35.36 35.77 36.17 36.64 37.17 37.96 38.90 39.70 40.09 40.49 40.86 41.01 41.15 41.37 41.88 42.40 43.10 43.81 44.74 45.54 46.17 46.93 47.55 48.31 49.61 50.98 52.11 52.93 53.37 53.19 52.67 51.97 51.75
30.60 30.71 30.60 30.51 30.34 30.16 29.99 30.01 30.16 30.20 30.20 30.11 30.25 30.36 30.43 30.44 30.50 30.56 30.72 30.78 30.87 30.92 30.90 30.82 30.98 31.20 31.45 31.78 32.07 32.38 32.72 32.90 33.52 33.96 34.29 34.82 35.24 35.73 36.18 36.65 37.34 38.04 38.86 39.54 39.94 40.33 40.67 40.71 40.89 41.10 41.39 41.64 42.03 42.47 42.95 43.35 44.15 44.96 45.86 47.02 48.27 49.91 51.45 52.84 53.43 53.52 53.31 52.78 52.40
30.34 30.43 30.44 30.34 30.10 29.89 29.65 29.56 29.66 29.73 29.64 29.67 29.90 30.01 30.18 30.27 30.43 30.60 30.76 30.84 30.83 30.76 30.79 30.78 30.88 31.18 31.52 31.78 32.09 32.29 32.53 32.66 33.22 33.68 34.30 34.80 35.24 35.59 36.06 36.52 37.14 37.72 38.30 38.92 39.67 40.06 40.36 40.48 40.65 40.73 40.63 40.60 40.60 40.61 40.97 41.50 42.03 42.51 43.13 43.94 45.06 46.71 48.71 50.94 52.78 53.73 53.88 53.56 52.99
30.00 30.16 30.16 30.09 29.92 29.63 29.45 29.19 29.05 29.03 28.94 29.11 29.46 29.75 29.91 30.07 30.24 30.33 30.59 30.61 30.71 30.93 30.96 30.79 30.95 31.27 31.63 31.87 32.16 32.37 32.57 32.61 33.00 33.59 34.13 34.74 34.95 35.27 35.78 36.27 36.85 37.26 37.69 38.35 38.90 39.42 39.68 39.48 39.74 39.74 39.42 39.10 39.10 39.41 39.91 40.63 40.99 41.51 42.08 42.66 43.37 44.34 45.55 47.42 50.14 52.36 53.62 53.69 53.24
29.83 29.84 29.89 29.81 29.54 29.37 29.02 28.76 28.53 28.42 28.50 28.77 29.05 29.37 29.63 29.82 30.02 30.24 30.34 30.42 30.60 30.79 31.02 31.21 31.32 31.46 31.69 31.93 32.40 32.73 32.92 32.95 32.97 33.25 33.67 34.24 34.82 35.20 35.66 36.07 36.51 36.90 37.33 37.58 37.73 37.78 37.67 37.34 38.03 38.27 38.27 38.03 38.20 38.55 39.00 39.67 40.30 40.95 41.61 42.44 43.06 43.64 44.35 45.33 47.28 49.69 51.95 53.62 53.40
29.73 29.56 29.54 29.39 29.19 28.93 28.60 28.43 28.17 28.08 28.26 28.52 28.69 28.93 29.22 29.66 29.93 30.20 30.28 30.20 30.51 30.71 30.97 31.14 31.30 31.32 31.37 31.58 31.98 32.26 32.59 32.67 33.02 33.13 33.22 33.23 33.91 34.24 34.67 35.14 35.72 36.53 37.03 37.04 36.63 36.40 36.38 36.49 36.44 36.60 37.01 37.78 37.71 37.74 38.17 38.89 39.68 40.38 41.12 41.83 42.49 43.11 43.77 44.35 45.46 47.42 49.73 52.40 53.52
29.37 29.22 29.02 28.95 28.69 28.43 28.19 28.07 27.99 27.90 27.90 28.02 28.32 28.59 28.85 29.15 29.60 29.86 30.09 30.02 30.28 30.51 30.77 30.86 31.04 30.92 30.86 31.19 31.53 31.69 31.79 32.00 32.55 32.92 33.14 33.02 33.26 33.52 33.69 34.10 34.85 35.67 36.18 35.99 35.65 35.64 35.77 35.94 35.94 35.94 36.39 37.39 37.39 37.28 37.47 37.80 38.80 39.68 40.39 41.09 41.97 42.77 43.34 43.96 44.72 45.87 47.55 50.30 52.81
28.86 28.76 28.67 28.43 28.23 28.00 27.93 27.75 27.58 27.54 27.48 27.66 27.98 28.33 28.62 28.85 29.11 29.32 29.50 29.58 29.90 30.00 30.14 30.26 30.55 30.61 30.53 30.52 30.85 31.32 31.61 31.66 31.84 32.21 32.59 32.80 32.83 33.02 33.20 33.55 34.14 34.50 34.82 34.81 34.89 35.06 35.25 35.55 35.62 35.72 35.78 36.06 36.95 37.21 37.11 37.11 37.77 38.54 39.44 40.29 41.40 42.24 42.99 43.59 44.42 45.38 46.62 48.60 51.26
28.35 28.24 28.02 27.80 27.62 27.56 27.50 27.39 27.22 27.05 27.22 27.45 27.88 28.15 28.35 28.42 28.77 29.03 29.20 29.38 29.56 29.55 29.42 29.61 29.95 30.07 29.95 30.00 30.43 30.88 31.19 31.21 31.65 31.86 32.16 32.33 32.40 32.69 32.98 33.22 33.59 33.78 33.95 33.98 34.19 34.45 34.65 34.84 35.06 35.27 35.32 35.36 36.10 36.43 36.61 36.76 37.15 37.72 38.57 39.44 40.59 41.65 42.55 43.41 44.31 45.17 46.04 47.09 49.07
28.10 27.73 27.54 27.22 27.10 27.01 26.93 26.84 26.87 27.01 27.19 27.46 27.62 27.74 27.83 27.98 28.19 28.42 28.85 29.22 29.27 29.28 29.20 29.33 29.54 29.65 29.75 29.79 30.35 30.59 30.75 30.90 31.26 31.47 31.64 31.71 31.70 31.99 32.23 32.55 33.13 33.59 33.70 33.50 33.74 33.95 34.23 34.45 34.67 34.79 34.85 34.92 35.69 36.21 36.54 36.62 36.87 37.23 37.60 38.50 39.62 40.71 41.86 43.00 43.97 44.74 45.34 46.04 47.08
27.73 27.36 27.05 26.78 26.44 26.32 26.40 26.52 26.63 26.77 26.98 27.01 27.19 27.22 27.28 27.47 27.62 27.91 28.42 28.90 28.95 28.92 28.93 29.17 29.37 29.58 29.77 29.92 30.00 30.08 30.25 30.56 30.73 30.88 30.98 31.01 31.23 31.32 31.67 32.02 32.71 33.08 33.21 33.22 33.34 33.60 33.84 34.12 34.30 34.59 34.66 34.62 35.17 35.83 36.40 36.57 36.82 36.96 37.32 37.88 38.82 39.99 41.02 41.94 43.21 44.14 44.99 45.71 46.16
27.21 27.01 26.58 26.09 25.74 25.79 25.99 26.19 26.37 26.46 26.63 26.60 26.69 26.78 27.02 27.04 27.22 27.59 27.96 28.37 28.51 28.53 28.62 28.75 29.01 29.29 29.51 29.68 29.76 29.92 30.14 30.34 30.27 30.36 30.44 30.52 30.64 30.87 31.27 31.67 32.31 32.58 32.68 32.90 33.10 33.35 33.52 33.85 34.16 34.33 34.48 34.39 34.82 35.81 36.54 36.60 37.03 37.23 37.49 37.98 38.78 39.61 40.27 40.88 42.11 43.47 44.60 45.35 45.79
26.80 26.43 26.06 25.48 25.27 25.45 25.65 25.91 26.06 26.17 26.19 26.26 26.40 26.61 26.84 26.87 27.23 27.67 28.03 28.19 28.20 28.38 28.54 28.64 28.87 29.00 29.18 29.44 29.54 29.79 30.07 30.18 30.28 30.25 30.16 30.03 30.16 30.34 30.58 30.84 31.71 32.23 32.45 32.71 32.92 33.11 33.44 33.70 33.98 34.19 34.38 34.09 34.89 35.73 36.51 36.63 37.30 37.48 37.64 38.08 38.84 39.54 40.22 40.90 41.59 42.79 44.02 45.03 45.70
26.28 25.82 25.45 25.01 24.86 25.04 25.21 25.47 25.71 25.76 25.73 25.82 26.14 26.34 26.68 26.80 27.04 27.32 27.67 27.87 27.92 28.16 28.35 28.64 28.88 28.99 29.20 29.51 29.62 29.67 29.83 29.79 30.05 30.18 30.34 30.20 30.02 29.99 30.08 30.43 31.64 32.24 32.47 32.35 32.66 32.92 33.28 33.64 33.89 34.15 34.20 33.89 34.94 35.75 36.42 36.69 36.92 37.15 37.45 37.97 38.58 39.30 40.13 41.05 41.86 42.85 43.97 44.78 45.34
25.59 25.07 24.63 24.46 24.52 24.60 24.84 25.04 25.21 25.30 25.39 25.48 25.74 26.01 26.34 26.58 26.75 26.97 27.30 27.52 27.63 27.92 28.24 28.74 29.06 29.28 29.39 29.60 29.67 29.59 29.58 29.94 30.15 30.28 30.22 30.11 29.94 29.79 29.76 30.04 31.10 31.66 32.00 32.18 32.44 32.81 33.24 33.59 33.78 33.91 34.00 34.02 35.15 36.02 36.54 36.74 36.52 36.85 37.37 37.89 38.47 39.25 40.29 41.13 41.99 43.04 43.91 44.70 45.26
24.89 24.46 24.02 23.94 24.02 24.26 24.43 24.60 24.75 24.84 24.87 25.04 25.33 25.69 26.02 26.20 26.59 26.92 27.33 27.39 27.60 27.79 28.19 28.61 28.85 28.93 28.98 29.15 29.29 29.26 29.36 29.94 30.04 30.16 30.26 30.30 29.97 29.76 29.79 30.08 30.84 31.33 31.77 32.13 32.50 32.88 33.22 33.45 33.70 33.82 34.02 34.52 35.49 36.07 36.44 36.42 36.49 36.75 37.24 37.66 38.24 39.09 40.11 41.13 42.24 43.17 43.91 44.78 45.52
24.72 24.34 23.85 23.59 23.56 23.85 24.08 24.31 24.31 24.34 24.43 24.66 25.00 25.34 25.66 25.83 26.28 26.84 27.36 27.47 27.53 27.63 27.77 28.14 28.27 28.35 28.43 28.62 28.72 28.91 29.18 29.62 29.84 29.88 30.00 30.08 30.00 29.89 29.93 30.09 30.82 31.20 31.69 32.13 32.50 32.88 33.22 33.45 33.73 33.98 34.17 34.63 35.41 35.77 35.95 36.10 36.07 36.38 36.89 37.45 38.19 39.10 40.16 41.32 42.49 43.39 44.30 45.13 45.52
24.43 24.28 24.08 23.42 23.39 23.56 23.76 23.97 24.00 24.23 24.31 24.60 24.69 25.04 25.36 25.62 25.98 26.57 27.09 27.17 27.13 27.15 27.37 27.71 27.90 28.11 28.46 28.62 28.63 28.94 29.28 29.68 29.78 29.85 29.87 30.16 30.30 30.20 30.12 30.09 30.78 31.42 31.88 32.17 32.54 32.86 33.26 33.52 33.82 34.07 34.19 34.39 34.96 35.23 35.32 35.57 35.61 35.86 36.27 36.75 37.75 38.94 40.19 41.29 42.38 43.44 44.43 45.26 44.20
24.11 23.99 23.82 23.59 23.42 23.39 23.50 23.65 23.88 24.17 24.37 24.40 24.47 24.77 25.14 25.41 25.76 26.32 26.88 27.09 27.23 27.29 27.24 27.32 27.56 28.03 28.46 28.63 28.47 28.78 29.26 29.59 29.66 29.83 30.04 30.68 30.82 30.58 30.21 30.10 30.79 31.42 31.87 32.13 32.42 32.79 33.26 33.69 33.96 34.10 34.16 34.25 34.78 34.93 35.06 35.17 35.21 35.37 35.78 36.30 37.14 38.27 39.68 40.94 42.19 43.27 44.26 45.43 43.36
23.77 23.62 23.42 23.22 23.19 23.19 23.39 23.73 23.85 24.05 24.20 24.19 24.24 24.48 24.86 25.12 25.58 26.23 26.84 27.25 27.64 27.64 27.48 27.29 27.53 28.03 28.46 28.41 28.46 28.71 29.00 29.18 29.65 29.92 30.27 30.73 30.90 30.71 30.45 30.54 30.96 31.36 31.69 32.04 32.47 32.95 33.33 33.71 34.02 34.02 34.08 34.35 34.75 34.82 34.71 34.65 34.55 34.75 35.28 35.81 36.55 37.60 38.86 40.42 41.83 43.04 44.30 45.52 44.59
23.30 23.22 23.03 22.94 23.00 23.11 23.42 23.88 24.02 24.01 24.06 24.14 24.22 24.44 24.81 25.19 25.64 26.24 26.88 27.19 27.49 27.40 27.27 27.21 27.61 28.14 28.51 28.38 28.48 28.79 29.00 29.11 29.41 29.82 30.27 30.47 30.71 30.80 30.87 31.28 31.44 31.62 31.92 32.37 32.56 32.93 33.29 33.67 33.81 33.74 33.78 33.99 34.46 34.63 34.38 34.09 33.88 34.06 34.55 35.43 36.29 37.23 38.29 39.44 40.88 42.26 43.67 44.82 45.87
MSLP
1020.02 1019.98 1019.90 1019.86 1019.86 1019.74 1019.58 1019.46 1019.42 1019.30 1019.18 1019.02 1018.86 1018.70 1018.58 1018.42 1018.22 1018.02 1017.90 1017.78 1017.58 1017.34 1017.18 1017.02 1016.82 1016.62 1016.46 1016.30 1016.14 1015.94 1015.74 1015.62 1015.50 1015.38 1015.22 1015.02 1014.82 1014.66 1014.58 1014.46 1014.38 1014.22 1014.10 1013.94 1013.86 1013.82 1013.70 1013.58 1013.38 1013.14 1012.90 1012.74 1012.58 1012.46 1012.30 1012.22 1012.14 1012.02 1011.86 1011.74 1011.54 1011.34 1011.18 1010.90 1010.70 1010.46 1010.26 1010.10 1009.90
1020.14 1020.10 1020.14 1020.10 1020.02 1019.86 1019.74 1019.58 1019.46 1019.30 1019.22 1019.10 1018.94 1018.78 1018.66 1018.46 1018.30 1018.06 1017.86 1017.74 1017.58 1017.42 1017.22 1017.02 1016.78 1016.58 1016.42 1016.22 1016.10 1015.94 1015.74 1015.58 1015.46 1015.26 1015.02 1014.86 1014.70 1014.62 1014.54 1014.42 1014.30 1014.14 1014.02 1013.90 1013.78 1013.62 1013.46 1013.38 1013.22 1013.02 1012.86 1012.70 1012.58 1012.38 1012.22 1012.14 1012.06 1011.94 1011.74 1011.58 1011.46 1011.30 1011.18 1011.02 1010.74 1010.50 1010.30 1010.02 1009.82
1020.22 1020.26 1020.22 1020.14 1020.02 1019.86 1019.74 1019.58 1019.46 1019.30 1019.22 1019.14 1019.02 1018.86 1018.70 1018.54 1018.30 1018.10 1017.90 1017.74 1017.58 1017.46 1017.22 1016.98 1016.74 1016.58 1016.42 1016.22 1016.14 1016.02 1015.82 1015.62 1015.46 1015.26 1015.02 1014.74 1014.54 1014.46 1014.38 1014.30 1014.14 1014.02 1013.94 1013.82 1013.70 1013.58 1013.38 1013.22 1013.02 1012.86 1012.70 1012.54 1012.38 1012.22 1012.06 1011.94 1011.86 1011.74 1011.54 1011.34 1011.30 1011.18 1011.06 1010.86 1010.74 1010.62 1010.46 1010.10 1009.78
1020.34 1020.30 1020.26 1020.14 1020.02 1019.90 1019.78 1019.66 1019.46 1019.30 1019.18 1019.10 1018.98 1018.86 1018.70 1018.50 1018.30 1018.06 1017.86 1017.70 1017.54 1017.34 1017.18 1016.98 1016.74 1016.58 1016.46 1016.34 1016.18 1016.02 1015.86 1015.74 1015.54 1015.30 1015.10 1014.82 1014.62 1014.46 1014.38 1014.30 1014.14 1014.02 1013.86 1013.74 1013.58 1013.42 1013.26 1013.10 1012.90 1012.74 1012.50 1012.26 1012.06 1011.90 1011.78 1011.70 1011.62 1011.54 1011.42 1011.30 1011.22 1011.06 1010.86 1010.66 1010.54 1010.50 1010.38 1010.14 1009.86
1020.34 1020.34 1020.30 1020.22 1020.10 1019.98 1019.86 1019.74 1019.54 1019.34 1019.22 1019.14 1018.98 1018.78 1018.58 1018.42 1018.22 1018.02 1017.82 1017.66 1017.46 1017.30 1017.18 1017.06 1016.86 1016.74 1016.58 1016.46 1016.22 1016.02 1015.86 1015.70 1015.54 1015.30 1015.06 1014.82 1014.58 1014.46 1014.34 1014.22 1014.10 1013.98 1013.86 1013.74 1013.58 1013.38 1013.18 1012.98 1012.74 1012.54 1012.30 1012.10 1011.90 1011.74 1011.58 1011.46 1011.46 1011.34 1011.26 1011.22 1011.10 1010.90 1010.70 1010.46 1010.30 1010.14 1010.10 1010.02 1009.86
1020.38 1020.38 1020.34 1020.30 1020.14 1020.02 1019.86 1019.74 1019.58 1019.46 1019.30 1019.10 1018.90 1018.70 1018.46 1018.30 1018.10 1017.90 1017.74 1017.62 1017.46 1017.38 1017.30 1017.18 1017.02 1016.82 1016.58 1016.34 1016.06 1015.86 1015.66 1015.50 1015.30 1015.10 1014.86 1014.66 1014.46 1014.30 1014.14 1013.94 1013.82 1013.74 1013.70 1013.58 1013.46 1013.30 1013.18 1012.94 1012.66 1012.34 1012.14 1011.98 1011.74 1011.54 1011.42 1011.38 1011.30 1011.22 1011.14 1011.02 1010.82 1010.70 1010.54 1010.30 1010.10 1009.90 1009.78 1009.70 1009.62
1020.50 1020.46 1020.38 1020.30 1020.14 1020.02 1019.86 1019.74 1019.58 1019.42 1019.26 1019.02 1018.78 1018.54 1018.34 1018.18 1018.02 1017.90 1017.82 1017.70 1017.50 1017.38 1017.22 1017.10 1016.90 1016.66 1016.42 1016.14 1015.90 1015.70 1015.50 1015.30 1015.14 1014.90 1014.74 1014.54 1014.30 1014.10 1013.98 1013.82 1013.70 1013.58 1013.42 1013.26 1013.18 1013.06 1012.94 1012.78 1012.58 1012.22 1011.94 1011.74 1011.58 1011.34 1011.26 1011.18 1011.14 1011.02 1010.86 1010.70 1010.58 1010.46 1010.30 1010.10 1009.94 1009.78 1009.58 1009.34 1009.22
1020.58 1020.50 1020.42 1020.30 1020.14 1020.02 1019.86 1019.74 1019.58 1019.34 1019.14 1018.86 1018.66 1018.46 1018.26 1018.14 1018.02 1017.90 1017.78 1017.62 1017.46 1017.22 1017.06 1016.90 1016.74 1016.50 1016.30 1016.10 1015.86 1015.66 1015.46 1015.26 1015.02 1014.82 1014.58 1014.38 1014.14 1013.94 1013.78 1013.66 1013.58 1013.46 1013.30 1013.14 1012.94 1012.74 1012.62 1012.54 1012.34 1012.06 1011.78 1011.54 1011.30 1011.14 1011.02 1010.94 1010.86 1010.74 1010.58 1010.46 1010.34 1010.22 1010.06 1009.86 1009.74 1009.62 1009.38 1009.14 1008.94
1020.50 1020.46 1020.38 1020.30 1020.14 1020.02 1019.86 1019.66 1019.50 1019.26 1019.02 1018.74 1018.54 1018.38 1018.26 1018.14 1018.02 1017.90 1017.74 1017.50 1017.30 1017.18 1016.94 1016.74 1016.58 1016.46 1016.26 1016.06 1015.86 1015.66 1015.46 1015.22 1014.98 1014.74 1014.54 1014.30 1014.06 1013.86 1013.70 1013.58 1013.46 1013.30 1013.18 1013.02 1012.86 1012.66 1012.46 1012.30 1012.02 1011.86 1011.66 1011.42 1011.18 1010.90 1010.74 1010.66 1010.58 1010.46 1010.30 1010.18 1010.14 1010.02 1009.86 1009.66 1009.50 1009.34 1009.18 1008.98 1008.74
1020.46 1020.38 1020.30 1020.22 1020.14 1019.98 1019.78 1019.58 1019.38 1019.18 1018.90 1018.66 1018.46 1018.30 1018.22 1018.14 1018.02 1017.86 1017.66 1017.46 1017.30 1017.14 1016.94 1016.74 1016.58 1016.46 1016.22 1015.98 1015.78 1015.58 1015.34 1015.14 1014.94 1014.66 1014.38 1014.14 1013.94 1013.78 1013.62 1013.46 1013.30 1013.18 1013.02 1012.94 1012.82 1012.62 1012.38 1012.14 1011.86 1011.62 1011.46 1011.30 1011.06 1010.86 1010.58 1010.46 1010.30 1010.14 1009.98 1009.86 1009.78 1009.70 1009.54 1009.34 1009.22 1009.06 1008.94 1008.78 1008.58
1020.38 1020.34 1020.30 1020.18 1020.02 1019.86 1019.70 1019.46 1019.30 1019.06 1018.86 1018.66 1018.50 1018.34 1018.26 1018.10 1017.94 1017.78 1017.62 1017.50 1017.30 1017.06 1016.86 1016.70 1016.54 1016.34 1016.14 1015.86 1015.70 1015.46 1015.22 1015.02 1014.78 1014.54 1014.30 1014.06 1013.86 1013.66 1013.46 1013.30 1013.10 1012.98 1012.86 1012.74 1012.66 1012.46 1012.26 1012.02 1011.74 1011.50 1011.30 1011.14 1010.94 1010.74 1010.50 1010.30 1010.06 1009.86 1009.70 1009.54 1009.46 1009.30 1009.22 1009.14 1008.98 1008.74 1008.58 1008.42 1008.30
1020.34 1020.30 1020.22 1020.14 1019.98 1019.82 1019.62 1019.46 1019.26 1019.06 1018.86 1018.70 1018.50 1018.38 1018.26 1018.10 1017.90 1017.78 1017.62 1017.46 1017.22 1016.98 1016.78 1016.62 1016.46 1016.26 1016.02 1015.82 1015.58 1015.38 1015.18 1014.94 1014.70 1014.42 1014.14 1013.94 1013.70 1013.50 1013.30 1013.10 1012.94 1012.78 1012.62 1012.50 1012.42 1012.30 1012.10 1011.86 1011.62 1011.34 1011.14 1010.94 1010.78 1010.58 1010.30 1010.06 1009.86 1009.62 1009.46 1009.30 1009.18 1009.02 1008.90 1008.82 1008.74 1008.54 1008.30 1008.06 1007.90
1020.30 1020.26 1020.14 1020.02 1019.86 1019.74 1019.58 1019.38 1019.18 1019.02 1018.86 1018.66 1018.50 1018.38 1018.26 1018.10 1017.90 1017.74 1017.58 1017.34 1017.10 1016.86 1016.66 1016.54 1016.42 1016.18 1015.98 1015.74 1015.46 1015.30 1015.06 1014.82 1014.58 1014.34 1014.10 1013.86 1013.58 1013.38 1013.18 1012.94 1012.74 1012.58 1012.42 1012.30 1012.22 1012.06 1011.90 1011.70 1011.46 1011.22 1010.98 1010.74 1010.58 1010.34 1010.10 1009.86 1009.58 1009.38 1009.18 1009.02 1008.86 1008.74 1008.58 1008.50 1008.46 1008.38 1008.22 1007.94 1007.70
1020.26 1020.18 1020.06 1019.94 1019.82 1019.66 1019.50 1019.30 1019.18 1018.98 1018.78 1018.58 1018.46 1018.34 1018.22 1018.02 1017.90 1017.74 1017.50 1017.26 1017.06 1016.82 1016.62 1016.46 1016.30 1016.10 1015.86 1015.62 1015.42 1015.18 1014.98 1014.74 1014.50 1014.22 1013.98 1013.74 1013.50 1013.26 1013.02 1012.78 1012.58 1012.38 1012.22 1012.06 1011.94 1011.82 1011.66 1011.46 1011.26 1011.02 1010.82 1010.58 1010.34 1010.14 1009.94 1009.70 1009.42 1009.14 1008.86 1008.70 1008.58 1008.46 1008.30 1008.18 1008.14 1008.10 1008.06 1007.90 1007.58
1020.14 1020.10 1020.02 1019.86 1019.74 1019.58 1019.42 1019.26 1019.06 1018.90 1018.74 1018.54 1018.46 1018.34 1018.22 1018.02 1017.86 1017.70 1017.46 1017.22 1017.02 1016.82 1016.58 1016.38 1016.14 1015.94 1015.74 1015.58 1015.34 1015.10 1014.86 1014.58 1014.38 1014.10 1013.82 1013.54 1013.30 1013.06 1012.86 1012.58 1012.38 1012.22 1012.02 1011.86 1011.74 1011.58 1011.42 1011.22 1011.02 1010.86 1010.66 1010.42 1010.18 1009.98 1009.74 1009.46 1009.18 1008.86 1008.58 1008.38 1008.22 1008.14 1008.02 1007.90 1007.82 1007.74 1007.70 1007.66 1007.46
1020.06 1020.02 1019.90 1019.78 1019.66 1019.50 1019.34 1019.18 1019.06 1018.90 1018.74 1018.54 1018.46 1018.30 1018.14 1017.98 1017.78 1017.58 1017.46 1017.18 1016.98 1016.74 1016.54 1016.30 1016.10 1015.86 1015.62 1015.46 1015.22 1014.98 1014.74 1014.46 1014.18 1013.94 1013.66 1013.38 1013.14 1012.86 1012.66 1012.42 1012.18 1012.02 1011.86 1011.70 1011.50 1011.34 1011.18 1011.02 1010.86 1010.66 1010.46 1010.26 1010.02 1009.74 1009.54 1009.30 1009.02 1008.66 1008.34 1008.10 1007.94 1007.86 1007.78 1007.62 1007.50 1007.38 1007.30 1007.22 1007.18
1020.02 1019.90 1019.82 1019.74 1019.58 1019.46 1019.30 1019.18 1019.02 1018.86 1018.70 1018.54 1018.42 1018.26 1018.10 1017.90 1017.74 1017.54 1017.38 1017.18 1016.94 1016.70 1016.46 1016.22 1016.02 1015.82 1015.54 1015.30 1015.06 1014.86 1014.58 1014.30 1014.02 1013.78 1013.50 1013.26 1013.02 1012.74 1012.50 1012.26 1012.02 1011.86 1011.66 1011.46 1011.30 1011.10 1010.94 1010.78 1010.62 1010.46 1010.26 1010.06 1009.82 1009.58 1009.30 1009.06 1008.78 1008.46 1008.14 1007.86 1007.62 1007.50 1007.42 1007.34 1007.18 1007.02 1006.94 1006.86 1006.82
1019.90 1019.82 1019.74 1019.62 1019.50 1019.38 1019.26 1019.14 1018.98 1018.82 1018.66 1018.50 1018.30 1018.18 1018.02 1017.86 1017.66 1017.46 1017.30 1017.14 1016.90 1016.62 1016.38 1016.14 1015.94 1015.74 1015.46 1015.18 1014.90 1014.70 1014.42 1014.14 1013.86 1013.62 1013.38 1013.14 1012.86 1012.62 1012.38 1012.14 1011.86 1011.70 1011.50 1011.30 1011.10 1010.90 1010.74 1010.54 1010.38 1010.22 1010.02 1009.82 1009.58 1009.34 1009.10 1008.86 1008.58 1008.30 1007.94 1007.58 1007.34 1007.18 1007.02 1006.94 1006.86 1006.78 1006.70 1006.58 1006.50
1019.86 1019.74 1019.70 1019.58 1019.46 1019.30 1019.18 1019.06 1018.90 1018.74 1018.58 1018.46 1018.26 1018.10 1017.90 1017.74 1017.58 1017.38 1017.18 1016.98 1016.78 1016.54 1016.30 1016.02 1015.82 1015.54 1015.30 1015.02 1014.78 1014.54 1014.26 1014.02 1013.74 1013.46 1013.22 1013.02 1012.74 1012.46 1012.22 1012.02 1011.74 1011.58 1011.30 1011.06 1010.86 1010.70 1010.54 1010.34 1010.18 1010.02 1009.82 1009.58 1009.30 1009.06 1008.82 1008.58 1008.34 1008.06 1007.78 1007.46 1007.14 1006.86 1006.66 1006.54 1006.46 1006.42 1006.38 1006.30 1006.26
1019.82 1019.74 1019.62 1019.54 1019.42 1019.26 1019.14 1018.98 1018.86 1018.70 1018.50 1018.30 1018.14 1017.98 1017.78 1017.58 1017.46 1017.26 1017.02 1016.82 1016.62 1016.42 1016.18 1015.94 1015.66 1015.42 1015.18 1014.86 1014.58 1014.34 1014.10 1013.86 1013.58 1013.30 1013.02 1012.82 1012.58 1012.34 1012.06 1011.82 1011.58 1011.38 1011.14 1010.90 1010.70 1010.50 1010.34 1010.22 1010.02 1009.86 1009.66 1009.38 1009.10 1008.82 1008.54 1008.26 1008.02 1007.82 1007.58 1007.30 1006.94 1006.62 1006.38 1006.18 1006.06 1006.02 1006.02 1006.02 1005.98
1019.74 1019.70 1019.58 1019.50 1019.38 1019.22 1019.10 1018.90 1018.74 1018.58 1018.42 1018.18 1018.02 1017.82 1017.62 1017.46 1017.30 1017.10 1016.90 1016.70 1016.46 1016.26 1016.02 1015.82 1015.54 1015.26 1014.98 1014.70 1014.42 1014.14 1013.90 1013.70 1013.46 1013.18 1012.86 1012.66 1012.42 1012.18 1011.94 1011.66 1011.46 1011.18 1010.98 1010.78 1010.58 1010.38 1010.22 1010.06 1009.90 1009.74 1009.54 1009.26 1008.94 1008.62 1008.34 1008.02 1007.74 1007.50 1007.26 1007.02 1006.74 1006.42 1006.10 1005.86 1005.74 1005.66 1005.62 1005.62 1005.62
1019.74 1019.66 1019.58 1019.46 1019.34 1019.18 1019.02 1018.86 1018.70 1018.46 1018.30 1018.10 1017.86 1017.70 1017.50 1017.30 1017.18 1016.98 1016.78 1016.58 1016.38 1016.14 1015.86 1015.62 1015.34 1015.06 1014.78 1014.54 1014.30 1014.02 1013.78 1013.54 1013.30 1013.02 1012.78 1012.54 1012.30 1012.02 1011.78 1011.58 1011.30 1011.10 1010.86 1010.62 1010.42 1010.22 1010.06 1009.90 1009.74 1009.58 1009.42 1009.18 1008.90 1008.66 1008.42 1008.14 1007.86 1007.54 1007.26 1006.94 1006.62 1006.26 1005.90 1005.58 1005.38 1005.26 1005.18 1005.22 1005.26
1019.70 1019.62 1019.54 1019.38 1019.26 1019.14 1018.98 1018.78 1018.58 1018.38 1018.14 1017.98 1017.74 1017.58 1017.38 1017.18 1017.02 1016.82 1016.62 1016.42 1016.22 1015.98 1015.74 1015.46 1015.22 1014.94 1014.66 1014.42 1014.14 1013.86 1013.62 1013.38 1013.18 1012.94 1012.66 1012.42 1012.14 1011.90 1011.66 1011.46 1011.26 1011.02 1010.74 1010.54 1010.30 1010.06 1009.86 1009.74 1009.58 1009.46 1009.30 1009.14 1008.98 1008.74 1008.50 1008.26 1008.02 1007.74 1007.42 1007.10 1006.78 1006.46 1006.06 1005.66 1005.26 1004.98 1004.82 1004.78 1004.82
1019.66 1019.58 1019.46 1019.30 1019.18 1019.02 1018.86 1018.70 1018.46 1018.26 1018.02 1017.86 1017.62 1017.46 1017.22 1017.02 1016.86 1016.62 1016.46 1016.26 1016.02 1015.82 1015.58 1015.30 1015.06 1014.82 1014.58 1014.30 1014.02 1013.78 1013.50 1013.26 1013.02 1012.74 1012.50 1012.30 1012.02 1011.78 1011.58 1011.34 1011.14 1010.90 1010.66 1010.42 1010.14 1010.02 1009.86 1009.74 1009.58 1009.46 1009.30 1009.22 1009.06 1008.86 1008.58 1008.30 1008.06 1007.74 1007.46 1007.18 1006.86 1006.58 1006.26 1005.86 1005.42 1004.98 1004.62 1004.46 1004.38
1019.62 1019.50 1019.38 1019.22 1019.06 1018.90 1018.74 1018.54 1018.30 1018.14 1017.94 1017.74 1017.54 1017.34 1017.14 1016.90 1016.74 1016.50 1016.30 1016.06 1015.82 1015.58 1015.38 1015.18 1014.94 1014.70 1014.46 1014.18 1013.90 1013.62 1013.38 1013.10 1012.86 1012.58 1012.34 1012.14 1011.90 1011.70 1011.46 1011.22 1010.98 1010.74 1010.46 1010.26 1010.10 1010.02 1009.94 1009.86 1009.74 1009.58 1009.42 1009.26 1009.10 1008.86 1008.62 1008.38 1008.10 1007.78 1007.46 1007.14 1006.82 1006.54 1006.22 1005.86 1005.50 1005.06 1004.62 1004.30 1004.10
1019.58 1019.42 1019.26 1019.10 1018.94 1018.78 1018.58 1018.42 1018.22 1018.02 1017.86 1017.66 1017.46 1017.26 1017.02 1016.86 1016.62 1016.38 1016.14 1015.86 1015.66 1015.46 1015.22 1014.98 1014.74 1014.54 1014.30 1014.02 1013.74 1013.46 1013.26 1012.98 1012.74 1012.50 1012.26 1012.02 1011.74 1011.54 1011.34 1011.14 1010.86 1010.58 1010.34 1010.14 1010.02 1009.98 1009.90 1009.86 1009.78 1009.70 1009.50 1009.26 1009.02 1008.82 1008.54 1008.26 1008.02 1007.74 1007.46 1007.14 1006.78 1006.46 1006.14 1005.78 1005.46 1005.14 1004.70 1004.26 1003.86
1019.46 1019.30 1019.18 1019.02 1018.86 1018.66 1018.46 1018.30 1018.14 1017.98 1017.74 1017.58 1017.34 1017.14 1016.94 1016.74 1016.54 1016.30 1016.02 1015.74 1015.54 1015.30 1015.06 1014.82 1014.58 1014.34 1014.10 1013.82 1013.54 1013.30 1013.10 1012.86 1012.62 1012.38 1012.14 1011.90 1011.66 1011.42 1011.18 1011.02 1010.78 1010.50 1010.30 1010.10 1010.02 1009.90 1009.86 1009.74 1009.66 1009.58 1009.46 1009.22 1008.98 1008.74 1008.46 1008.18 1007.90 1007.62 1007.34 1007.02 1006.70 1006.34 1006.02 1005.70 1005.42 1005.10 1004.74 1004.30 1003.86
1019.38 1019.22 1019.06 1018.94 1018.74 1018.58 1018.38 1018.26 1018.10 1017.90 1017.74 1017.50 1017.30 1017.10 1016.86 1016.66 1016.46 1016.14 1015.86 1015.66 1015.42 1015.18 1014.86 1014.62 1014.42 1014.18 1013.90 1013.62 1013.38 1013.14 1012.90 1012.70 1012.46 1012.26 1012.02 1011.82 1011.58 1011.30 1011.10 1010.86 1010.66 1010.46 1010.22 1010.10 1009.98 1009.86 1009.78 1009.66 1009.54 1009.46 1009.30 1009.18 1008.94 1008.70 1008.46 1008.14 1007.86 1007.58 1007.22 1006.86 1006.54 1006.14 1005.86 1005.58 1005.30 1005.02 1004.74 1004.30 1003.86
1019.30 1019.18 1019.02 1018.86 1018.66 1018.46 1018.30 1018.14 1018.02 1017.86 1017.66 1017.46 1017.30 1017.02 1016.78 1016.58 1016.30 1016.02 1015.78 1015.54 1015.26 1014.98 1014.74 1014.46 1014.22 1014.02 1013.74 1013.50 1013.22 1012.98 1012.74 1012.54 1012.30 1012.10 1011.86 1011.66 1011.46 1011.18 1010.94 1010.74 1010.54 1010.34 1010.14 1010.06 1009.90 1009.78 1009.66 1009.54 1009.38 1009.26 1009.18 1009.06 1008.86 1008.58 1008.30 1008.02 1007.74 1007.46 1007.10 1006.74 1006.38 1006.02 1005.70 1005.38 1005.14 1004.90 1004.62 1004.30 1003.94
1019.26 1019.14 1018.98 1018.78 1018.58 1018.42 1018.26 1018.14 1017.98 1017.82 1017.62 1017.46 1017.18 1016.98 1016.74 1016.46 1016.18 1015.90 1015.66 1015.38 1015.10 1014.82 1014.58 1014.42 1014.14 1013.86 1013.58 1013.34 1013.06 1012.82 1012.58 1012.34 1012.14 1011.94 1011.74 1011.54 1011.30 1011.06 1010.86 1010.66 1010.46 1010.22 1010.02 1009.94 1009.78 1009.62 1009.46 1009.38 1009.22 1009.10 1009.02 1008.90 1008.74 1008.46 1008.18 1007.90 1007.58 1007.30 1006.94 1006.62 1006.26 1005.94 1005.58 1005.26 1004.94 1004.70 1004.46 1004.30 1003.98
1019.22 1019.10 1018.90 1018.74 1018.54 1018.38 1018.22 1018.10 1017.90 1017.74 1017.58 1017.38 1017.10 1016.86 1016.62 1016.34 1016.10 1015.78 1015.50 1015.26 1014.94 1014.74 1014.50 1014.30 1014.02 1013.70 1013.38 1013.14 1012.94 1012.66 1012.42 1012.14 1012.02 1011.86 1011.66 1011.46 1011.22 1010.98 1010.74 1010.50 1010.30 1010.10 1009.94 1009.78 1009.62 1009.46 1009.34 1009.18 1009.02 1008.90 1008.78 1008.66 1008.50 1008.30 1008.02 1007.74 1007.46 1007.10 1006.74 1006.42 1006.14 1005.86 1005.54 1005.22 1004.90 1004.58 1004.34 1004.14 1003.90
1019.18 1019.02 1018.86 1018.70 1018.50 1018.38 1018.22 1018.06 1017.86 1017.70 1017.46 1017.26 1017.02 1016.74 1016.50 1016.22 1015.94 1015.66 1015.42 1015.18 1014.86 1014.58 1014.30 1014.06 1013.78 1013.50 1013.22 1012.94 1012.74 1012.50 1012.26 1012.02 1011.86 1011.74 1011.58 1011.34 1011.10 1010.86 1010.62 1010.38 1010.14 1009.94 1009.78 1009.66 1009.50 1009.30 1009.18 1009.02 1008.86 1008.70 1008.58 1008.46 1008.30 1008.06 1007.78 1007.50 1007.18 1006.86 1006.50 1006.22 1005.98 1005.74 1005.50 1005.22 1004.86 1004.54 1004.26 1003.98 1003.78
1019.18 1019.02 1018.86 1018.70 1018.50 1018.30 1018.14 1018.02 1017.86 1017.62 1017.42 1017.18 1016.94 1016.66 1016.38 1016.10 1015.82 1015.54 1015.30 1015.06 1014.78 1014.46 1014.14 1013.86 1013.62 1013.34 1013.02 1012.78 1012.58 1012.30 1012.10 1011.90 1011.78 1011.62 1011.46 1011.26 1011.02 1010.74 1010.50 1010.26 1010.02 1009.82 1009.66 1009.50 1009.34 1009.18 1008.98 1008.78 1008.58 1008.46 1008.30 1008.22 1008.02 1007.74 1007.46 1007.18 1006.86 1006.54 1006.22 1005.94 1005.70 1005.46 1005.22 1005.02 1004.74 1004.46 1004.14 1003.90 1003.70
1019.14 1019.02 1018.86 1018.70 1018.54 1018.34 1018.14 1017.94 1017.74 1017.54 1017.30 1017.02 1016.78 1016.58 1016.30 1015.98 1015.66 1015.38 1015.14 1014.90 1014.62 1014.34 1014.06 1013.78 1013.54 1013.26 1013.02 1012.74 1012.50 1012.22 1012.02 1011.86 1011.70 1011.46 1011.30 1011.10 1010.86 1010.62 1010.38 1010.14 1009.90 1009.74 1009.54 1009.38 1009.18 1009.02 1008.82 1008.62 1008.46 1008.26 1008.10 1007.94 1007.74 1007.46 1007.10 1006.82 1006.54 1006.22 1005.94 1005.66 1005.42 1005.18 1004.98 1004.74 1004.54 1004.30 1004.02 1003.82 1003.58
1019.18 1019.02 1018.82 1018.66 1018.50 1018.30 1018.10 1017.86 1017.70 1017.46 1017.22 1016.94 1016.66 1016.38 1016.14 1015.86 1015.58 1015.26 1014.98 1014.74 1014.46 1014.22 1013.90 1013.62 1013.38 1013.18 1012.90 1012.62 1012.42 1012.18 1011.94 1011.74 1011.54 1011.34 1011.18 1010.98 1010.74 1010.46 1010.18 1009.94 1009.74 1009.54 1009.34 1009.18 1009.02 1008.78 1008.58 1008.42 1008.22 1008.06 1007.90 1007.74 1007.46 1007.14 1006.78 1006.50 1006.22 1005.94 1005.66 1005.38 1005.10 1004.86 1004.66 1004.46 1004.30 1004.06 1003.86 1003.62 1003.42
1019.26 1019.06 1018.86 1018.66 1018.46 1018.30 1018.06 1017.82 1017.58 1017.34 1017.10 1016.86 1016.54 1016.26 1015.98 1015.70 1015.46 1015.18 1014.90 1014.62 1014.34 1014.02 1013.74 1013.46 1013.22 1012.98 1012.70 1012.46 1012.26 1012.10 1011.86 1011.58 1011.38 1011.18 1010.98 1010.78 1010.58 1010.30 1010.02 1009.74 1009.50 1009.30 1009.14 1008.98 1008.78 1008.62 1008.46 1008.22 1008.06 1007.90 1007.74 1007.54 1007.22 1006.86 1006.58 1006.30 1006.02 1005.74 1005.46 1005.18 1004.86 1004.58 1004.34 1004.14 1003.94 1003.74 1003.54 1003.34 1003.14
1019.30 1019.10 1018.90 1018.66 1018.46 1018.22 1018.02 1017.82 1017.54 1017.26 1016.98 1016.74 1016.46 1016.14 1015.86 1015.62 1015.34 1015.10 1014.86 1014.58 1014.18 1013.86 1013.54 1013.30 1013.06 1012.78 1012.58 1012.30 1012.10 1011.86 1011.70 1011.46 1011.22 1011.02 1010.78 1010.62 1010.42 1010.14 1009.82 1009.50 1009.30 1009.06 1008.90 1008.78 1008.58 1008.42 1008.26 1008.06 1007.90 1007.74 1007.58 1007.34 1007.02 1006.70 1006.42 1006.14 1005.86 1005.58 1005.30 1004.94 1004.62 1004.34 1004.10 1003.86 1003.58 1003.34 1003.14 1002.94 1002.78
1019.30 1019.14 1018.90 1018.66 1018.42 1018.18 1017.98 1017.74 1017.46 1017.18 1016.90 1016.58 1016.34 1016.10 1015.86 1015.58 1015.30 1014.98 1014.74 1014.46 1014.14 1013.74 1013.38 1013.14 1012.86 1012.62 1012.42 1012.14 1011.90 1011.70 1011.54 1011.38 1011.14 1010.86 1010.62 1010.38 1010.14 1009.94 1009.62 1009.30 1009.06 1008.86 1008.74 1008.58 1008.42 1008.22 1008.06 1007.86 1007.74 1007.58 1007.46 1007.22 1006.86 1006.58 1006.30 1006.06 1005.78 1005.50 1005.22 1004.86 1004.58 1004.26 1003.98 1003.70 1003.38 1003.06 1002.78 1002.58 1002.42
1019.30 1019.14 1018.90 1018.66 1018.42 1018.14 1017.90 1017.66 1017.42 1017.18 1016.86 1016.58 1016.30 1016.02 1015.78 1015.54 1015.18 1014.90 1014.66 1014.46 1014.14 1013.74 1013.34 1013.02 1012.74 1012.50 1012.30 1012.02 1011.74 1011.46 1011.26 1011.10 1010.90 1010.74 1010.46 1010.14 1009.94 1009.74 1009.50 1009.18 1008.86 1008.66 1008.54 1008.38 1008.22 1008.06 1007.86 1007.70 1007.58 1007.46 1007.30 1007.10 1006.82 1006.54 1006.30 1006.02 1005.74 1005.46 1005.18 1004.86 1004.54 1004.18 1003.86 1003.54 1003.18 1002.86 1002.54 1002.26 1002.14
1019.26 1019.06 1018.86 1018.70 1018.42 1018.14 1017.86 1017.58 1017.30 1017.10 1016.86 1016.58 1016.26 1015.98 1015.70 1015.46 1015.18 1014.86 1014.58 1014.34 1014.02 1013.66 1013.30 1012.98 1012.66 1012.38 1012.14 1011.90 1011.58 1011.26 1010.98 1010.78 1010.62 1010.46 1010.26 1009.98 1009.74 1009.58 1009.34 1009.02 1008.74 1008.46 1008.30 1008.14 1008.02 1007.86 1007.66 1007.50 1007.38 1007.26 1007.18 1006.94 1006.74 1006.46 1006.26 1006.02 1005.74 1005.42 1005.10 1004.82 1004.50 1004.14 1003.78 1003.46 1003.10 1002.74 1002.38 1002.02 1001.86
1019.18 1019.02 1018.82 1018.58 1018.38 1018.10 1017.82 1017.54 1017.22 1016.98 1016.74 1016.54 1016.26 1015.94 1015.62 1015.34 1015.06 1014.78 1014.46 1014.14 1013.86 1013.58 1013.30 1012.94 1012.58 1012.26 1012.02 1011.74 1011.46 1011.10 1010.74 1010.50 1010.30 1010.14 1009.98 1009.74 1009.54 1009.30 1009.10 1008.82 1008.50 1008.26 1008.02 1007.90 1007.78 1007.62 1007.46 1007.34 1007.22 1007.14 1007.02 1006.86 1006.62 1006.46 1006.22 1005.98 1005.70 1005.34 1005.06 1004.78 1004.50 1004.18 1003.86 1003.46 1003.10 1002.74 1002.38 1002.02 1001.70
Wind_Speed
8 7 7 7 6 6 6 6 6 6 6 6 7 7 7 7 8 8 7 7 7 8 8 8 8 9 10 12 13 14 14 13 14 14 15 15 15 15 15 14 14 14 14 14 14 13 13 13 12 10 9 8 9 10 10 9 10 11 12 12 12 12 14 16 16 17 18 19 16
8 8 8 7 7 6 6 6 6 6 6 6 7 7 7 7 8 8 8 8 8 8 8 8 9 10 12 13 14 14 14 14 15 15 15 16 15 15 14 13 14 14 14 14 14 12 11 12 11 10 8 8 9 10 10 10 11 12 14 15 13 12 12 13 15 16 17 18 17
8 8 8 8 8 7 7 6 7 8 8 8 7 7 8 8 8 8 8 8 9 9 9 8 9 11 13 14 13 13 13 14 15 15 15 15 14 14 14 13 13 14 13 13 13 12 11 11 10 10 9 8 9 10 10 11 12 13 14 15 12 11 10 11 12 13 14 13 15
9 9 9 9 10 10 9 7 8 9 9 8 8 8 8 8 8 8 8 9 9 9 9 9 9 10 11 12 13 14 14 14 15 15 15 15 14 14 14 13 14 14 14 14 14 13 13 13 10 9 9 10 11 11 10 10 11 11 11 11 11 11 11 11 11 11 11 12 14
10 9 9 9 10 10 10 9 10 10 9 8 8 8 8 8 8 8 8 8 8 9 10 11 11 11 11 13 15 15 15 15 15 15 14 15 15 15 14 14 15 14 14 15 15 15 15 14 11 9 9 10 10 10 11 11 12 12 11 9 10 11 11 11 11 11 11 11 12
10 10 10 10 11 11 10 9 11 11 10 9 9 9 9 8 8 8 9 9 10 11 13 13 13 12 13 15 15 15 15 15 15 15 15 16 15 16 16 17 16 15 14 14 15 16 16 14 11 9 9 10 10 11 12 13 12 12 11 10 10 10 10 11 11 11 11 12 13
11 11 11 11 11 11 11 11 11 11 11 10 11 11 11 10 10 11 11 11 11 12 12 11 12 12 13 14 14 15 15 14 15 16 16 16 16 16 16 16 16 16 16 15 15 15 14 13 11 9 9 8 9 11 13 13 12 12 12 12 11 10 11 12 11 11 12 15 17
10 11 11 11 12 12 12 12 12 11 11 10 11 12 13 12 12 13 13 13 12 11 11 10 12 13 14 14 14 14 15 15 15 15 16 15 16 17 16 15 15 15 16 15 15 14 13 12 10 9 9 9 8 9 12 14 14 14 14 14 12 11 11 11 11 12 14 17 19
10 10 11 11 12 12 12 13 13 13 12 12 12 12 13 13 13 13 13 12 11 11 11 11 12 14 15 15 15 14 14 14 14 15 15 15 15 15 15 14 14 14 14 14 14 15 14 11 9 9 9 9 8 9 11 14 15 16 15 14 13 13 13 12 13 14 15 17 19
10 11 11 11 12 12 13 13 13 13 13 13 13 13 13 12 13 13 12 11 11 12 12 12 13 14 15 15 15 14 13 13 13 14 14 15 15 15 14 13 14 14 14 13 13 14 14 12 11 10 10 10 11 13 14 14 15 16 15 13 13 15 16 15 15 16 16 16 18
11 11 11 11 12 12 13 13 12 12 12 12 12 13 13 13 13 12 12 11 12 13 14 13 14 14 14 14 14 14 13 13 13 13 14 15 15 15 15 15 14 14 14 14 13 12 12 11 12 13 13 13 13 14 15 16 16 16 16 14 15 16 17 17 17 16 16 16 18
11 11 11 11 12 12 12 12 11 11 11 12 12 12 12 12 13 13 13 13 14 14 14 13 14 14 14 13 13 13 13 14 14 14 15 15 16 16 16 16 16 16 15 15 13 12 11 12 13 14 15 15 13 13 14 16 16 17 17 17 17 17 17 18 18 16 15 15 17
11 11 11 12 12 12 12 12 10 10 11 12 12 12 12 12 13 13 14 14 14 13 12 13 13 13 13 13 13 13 13 14 14 15 15 15 16 16 16 16 16 16 15 14 13 12 12 13 14 15 16 16 13 13 14 16 16 16 17 18 18 18 18 18 18 17 17 17 17
11 11 12 12 12 12 11 11 10 10 10 12 12 11 11 12 12 13 13 13 13 13 13 13 12 12 12 13 14 14 14 15 15 16 16 16 16 16 16 16 16 16 15 13 13 13 13 14 14 15 16 16 15 15 16 16 16 16 16 17 17 18 18 18 18 18 18 19 19
11 12 12 12 12 11 11 11 10 10 10 12 11 11 11 11 11 12 12 13 13 13 13 12 12 12 13 14 15 15 16 16 16 16 16 17 17 16 16 16 16 15 15 13 13 13 14 15 15 15 16 16 16 16 16 17 17 16 16 16 17 17 17 18 18 18 18 19 19
12 12 12 12 12 11 11 10 9 9 10 11 11 12 11 11 11 11 12 13 13 12 12 13 13 13 13 14 15 15 15 15 16 16 16 16 16 16 16 16 16 15 15 15 14 14 14 14 14 15 15 16 16 16 16 17 17 17 17 16 17 17 17 18 18 18 18 18 19
12 12 12 12 12 12 12 11 10 10 11 12 12 12 12 11 11 11 12 13 12 13 13 15 14 14 14 14 14 14 14 14 14 15 15 15 16 16 16 16 16 16 16 15 15 15 15 14 14 14 15 16 16 16 16 17 17 17 17 17 16 17 17 18 18 18 18 18 18
12 12 12 12 13 13 13 12 12 12 12 13 13 12 12 12 12 12 12 13 13 14 15 16 15 14 14 15 14 13 13 13 14 15 15 15 16 16 17 17 16 16 16 16 15 15 15 15 15 15 15 15 15 16 16 16 16 17 17 17 16 17 17 18 18 17 17 17 17
12 12 13 13 13 13 13 13 13 13 13 13 13 13 13 13 14 13 13 13 14 15 16 16 15 15 15 16 15 14 14 14 15 15 16 16 16 16 16 17 16 16 16 16 15 15 14 14 15 15 15 15 15 15 15 16 16 17 17 18 17 17 17 18 18 17 17 17 17
12 13 13 13 13 13 14 14 14 14 13 13 13 14 14 14 14 14 14 14 15 15 16 16 15 15 15 16 16 16 15 13 14 15 16 16 16 16 16 17 17 16 16 16 15 14 14 14 14 15 15 15 16 16 16 15 16 16 17 17 17 17 17 17 17 17 17 17 16
12 13 13 13 13 14 14 14 14 14 14 14 14 14 15 15 14 15 15 15 15 16 16 16 16 16 16 16 16 16 15 13 14 15 15 15 16 16 16 16 16 15 15 15 14 14 14 14 14 14 15 15 15 15 15 14 14 15 15 15 15 16 17 17 17 17 17 17 16
12 12 13 13 13 14 14 14 14 14 14 14 14 15 15 15 15 15 15 15 15 15 16 16 16 16 16 16 16 16 15 14 14 15 15 15 15 15 15 15 15 15 15 15 14 14 14 13 13 13 14 14 14 15 15 15 15 15 15 15 16 17 17 17 17 17 18 17 17
12 12 12 12 13 14 14 14 15 15 15 15 15 15 15 15 15 15 15 15 15 15 15 15 15 16 16 16 16 16 16 15 15 15 15 15 15 15 15 14 14 15 15 14 13 13 12 12 12 12 12 12 14 15 15 16 15 15 15 16 17 17 18 17 17 16 17 17 17
13 13 12 11 13 14 14 15 15 15 15 15 15 15 15 15 15 15 15 15 15 15 15 14 14 15 16 16 16 16 16 16 16 16 16 15 15 15 15 14 13 13 13 12 11 11 10 9 10 10 11 12 13 14 15 15 15 15 15 16 16 16 17 18 18 17 16 17 16
13 13 13 13 13 14 14 15 15 15 15 15 15 15 16 16 16 15 15 16 16 16 16 16 15 15 15 15 15 15 15 15 15 15 15 15 15 15 14 13 12 11 11 10 11 12 11 10 10 10 11 11 12 13 14 15 15 16 16 16 16 16 16 17 18 18 18 17 16
13 13 14 14 14 14 15 15 15 15 15 15 16 16 16 16 15 16 16 16 16 16 16 16 15 14 13 13 14 14 14 13 14 14 15 15 15 15 14 12 11 10 10 11 12 12 12 12 13 12 12 12 12 12 13 13 14 15 16 16 16 16 15 15 16 17 18 17 16
13 13 14 14 14 15 15 15 15 15 15 16 16 16 16 16 15 16 16 16 16 16 15 14 14 13 13 12 13 14 14 13 13 14 15 15 16 16 15 13 11 10 10 12 14 15 15 16 16 15 14 13 13 12 12 12 13 14 15 15 15 15 15 16 16 16 17 17 17
13 13 14 15 15 15 15 15 15 15 16 16 16 16 16 16 16 17 16 16 16 15 14 13 12 11 10 10 12 13 14 14 14 14 14 14 15 15 15 13 12 12 13 16 17 17 18 19 19 18 16 14 13 13 13 13 13 13 13 13 14 15 15 15 14 14 15 17 17
14 14 15 15 15 16 15 15 16 16 16 16 16 16 16 16 17 17 16 16 16 15 13 12 10 10 10 11 13 14 15 15 14 13 13 14 15 15 15 14 14 15 16 18 19 19 20 20 20 19 17 16 13 11 11 11 11 11 12 12 12 13 14 14 13 13 14 15 16
14 14 15 16 16 16 16 15 16 16 16 15 16 16 17 17 17 16 16 16 16 15 13 12 12 12 13 14 14 14 14 14 13 13 14 15 15 15 15 15 15 15 17 19 20 20 21 21 20 20 18 17 15 13 11 11 11 11 12 11 13 14 15 15 16 15 15 14 15
14 14 15 16 16 16 16 16 16 16 16 15 16 16 17 16 17 16 16 16 15 15 14 14 15 16 16 15 15 14 14 14 14 14 14 15 16 16 16 16 16 16 17 19 20 21 21 21 21 20 19 17 15 13 12 12 12 12 12 12 14 15 16 16 16 17 17 17 16
14 15 15 16 16 16 16 16 16 16 16 16 17 17 17 17 16 16 16 15 15 15 16 16 16 16 16 16 15 15 15 15 14 14 14 15 16 16 17 17 17 16 17 19 20 21 21 22 21 21 20 18 16 15 14 14 14 13 14 14 16 17 16 15 15 17 18 19 17
15 15 15 16 16 16 16 16 16 16 16 17 17 17 17 17 16 16 16 15 15 15 16 16 16 16 16 16 16 16 16 15 15 15 16 16 16 17 17 16 15 15 16 18 20 21 21 22 22 21 20 18 16 15 15 15 13 13 13 14 15 16 17 17 17 17 18 19 18
15 15 16 16 16 16 17 16 16 16 17 17 17 17 17 17 17 16 16 15 14 14 15 15 15 15 15 15 16 16 15 14 15 15 16 16 17 17 17 15 13 13 16 19 20 21 21 22 21 21 20 18 15 15 15 15 13 13 13 14 15 16 16 17 17 18 18 19 18
15 16 16 16 16 16 17 17 17 17 17 17 17 17 17 17 17 17 16 16 15 15 15 15 15 15 15 15 15 15 16 16 15 16 16 16 17 17 17 16 15 16 18 20 20 21 21 21 21 21 19 17 14 13 13 14 14 14 15 16 16 16 17 17 17 17 17 18 18
15 16 16 17 17 17 17 17 17 17 17 17 17 17 17 17 17 16 16 16 16 16 16 15 15 15 15 15 15 15 15 16 16 16 16 16 17 17 18 17 17 17 19 20 20 20 20 21 21 20 19 16 13 12 12 12 12 13 15 16 16 17 17 16 16 16 16 16 17
15 16 16 17 17 17 17 17 17 17 18 18 18 18 18 17 17 16 16 16 16 16 16 16 16 16 16 16 15 15 15 16 17 17 17 16 17 17 17 17 17 17 18 19 19 20 20 21 20 19 17 15 13 12 11 11 11 12 13 15 15 16 16 15 15 15 16 16 16
15 15 16 17 17 17 17 17 17 18 18 18 18 17 17 17 16 16 15 15 15 16 17 16 16 16 16 17 16 16 16 16 17 17 17 17 17 17 17 18 17 17 17 18 19 20 20 20 20 18 16 13 13 12 11 10 10 11 12 13 13 14 14 13 12 13 14 16 16
15 15 16 16 17 17 17 17 18 18 18 18 18 17 17 16 15 15 15 14 15 16 17 17 17 17 17 17 17 17 17 17 17 17 17 17 16 17 17 18 17 17 17 18 19 20 20 19 19 17 16 14 13 11 10 9 10 11 12 12 12 13 13 13 12 12 13 15 15
15 15 16 16 17 17 17 18 18 17 17 17 17 17 17 16 16 15 15 14 15 16 16 17 18 18 18 17 17 17 18 17 17 16 16 16 17 17 18 18 17 17 17 18 19 19 19 18 17 17 15 13 12 10 9 9 10 11 11 11 11 11 11 11 11 11 11 13 13
15 15 16 16 16 17 17 18 18 17 17 17 17 17 16 16 16 16 15 14 15 16 15 15 17 18 18 17 16 17 18 18 18 17 17 17 16 16 17 17 17 17 17 17 17 18 18 17 17 16 15 13 12 10 9 9 10 11 11 11 10 10 10 10 10 10 11 12 11
Wind_Direction
330 331 331 328 322 316 312 309 307 304 301 300 299 299 298 297 295 293 291 290 290 291 291 290 290 289 289 289 289 289 289 289 287 284 282 280 279 280 281 282 281 279 277 275 273 271 270 270 272 273 272 271 269 265 262 258 257 256 254 252 252 252 253 253 252 249 246 244 244
331 330 327 321 315 310 308 306 303 302 301 300 299 298 297 295 293 291 290 289 289 290 290 290 289 290 291 293 294 295 295 294 292 289 286 283 283 282 282 281 281 280 280 280 278 275 271 267 266 264 263 262 263 261 258 253 251 251 250 248 248 248 250 251 253 254 253 250 246
331 329 324 319 315 312 309 305 304 303 302 300 299 297 295 293 291 290 290 290 290 289 289 288 290 292 295 297 298 298 298 297 297 296 294 291 289 287 285 283 283 282 280 278 275 274 272 269 266 262 258 254 252 252 252 251 248 248 249 249 249 248 246 245 247 251 254 256 251
330 327 322 317 315 312 309 305 304 303 302 300 298 295 292 289 289 288 289 289 289 289 290 294 296 298 300 301 301 300 299 299 299 298 297 296 296 295 295 294 292 291 289 287 283 278 273 270 267 264 260 258 254 252 249 249 247 248 249 249 250 249 247 244 241 242 245 252 253
330 326 322 317 314 311 308 305 305 305 303 301 297 294 291 288 287 288 289 291 294 297 301 304 303 303 301 299 297 296 295 294 293 292 291 291 291 291 291 289 288 289 289 289 288 285 281 277 271 265 261 260 259 257 255 253 252 251 249 248 247 247 247 246 242 238 237 241 247
328 325 320 315 313 311 309 307 306 304 302 298 294 291 289 288 290 295 298 301 302 303 303 302 300 297 294 292 291 290 290 289 287 286 286 287 286 285 284 283 281 280 279 278 279 280 281 281 275 267 261 259 258 257 256 254 253 251 250 247 245 244 245 246 245 242 239 236 239
325 322 319 315 314 312 310 308 305 302 299 294 291 290 291 293 298 302 304 304 301 300 298 295 292 290 290 290 291 291 291 290 288 287 285 284 283 283 283 283 283 282 279 276 273 272 272 274 274 271 266 259 256 254 252 249 248 247 247 247 245 244 244 245 246 246 244 241 238
321 319 318 317 314 312 309 307 304 301 298 293 293 294 297 300 304 304 303 301 298 296 295 293 292 293 294 295 295 294 293 292 290 288 287 285 284 283 283 283 283 283 281 280 276 273 270 268 267 268 268 265 259 253 249 245 243 242 242 244 245 245 244 243 243 244 245 245 242
320 320 319 317 314 311 309 306 303 300 297 295 296 299 302 305 305 304 301 299 298 298 298 297 298 298 297 296 295 294 292 291 290 289 287 287 286 286 286 285 283 282 282 282 282 280 277 272 267 266 267 270 269 263 256 248 242 240 239 240 241 243 244 244 241 241 242 244 244
320 321 320 317 314 311 309 307 304 301 300 299 301 304 305 306 304 302 301 300 300 300 299 299 299 298 297 295 294 292 291 289 288 288 287 287 287 286 285 284 282 281 281 281 282 282 281 278 274 271 270 271 273 272 269 261 251 244 240 238 238 240 243 245 244 241 240 240 242
320 321 319 315 313 312 310 309 307 306 305 306 308 309 308 306 304 303 302 303 301 299 298 297 297 297 295 294 293 292 291 290 289 289 288 288 287 286 285 283 282 281 279 278 278 279 279 278 276 274 272 270 271 271 270 267 259 251 246 242 240 240 242 245 247 246 243 240 239
320 320 317 313 312 312 312 311 310 309 309 309 309 309 308 306 306 305 304 302 300 298 297 298 298 297 296 294 294 293 292 292 291 291 290 289 288 287 286 285 283 281 279 278 277 276 275 274 274 273 272 270 269 268 267 266 261 255 250 247 243 241 241 243 247 250 251 248 243
320 319 316 313 313 313 312 311 310 309 308 308 308 309 308 307 307 306 304 302 301 300 300 300 299 298 296 295 295 294 294 293 293 292 291 290 288 288 286 284 283 281 280 278 276 274 272 272 272 272 271 271 269 268 268 267 263 257 252 248 245 243 241 241 243 248 254 257 254
320 318 316 315 314 313 311 310 309 308 308 308 309 309 309 308 307 306 304 303 303 302 302 302 300 298 297 297 296 295 295 294 293 291 290 289 287 286 285 283 282 281 280 278 275 273 272 271 272 272 273 273 272 272 272 272 268 261 254 248 245 243 242 241 240 243 248 254 257
319 318 316 315 314 312 311 311 310 309 309 309 310 310 310 307 307 306 304 304 304 303 302 302 300 299 298 297 296 295 294 293 292 291 289 288 287 286 285 283 283 282 281 279 276 274 272 272 273 273 274 274 274 274 274 274 272 267 259 250 245 243 242 242 240 239 241 245 252
319 318 317 315 314 313 312 313 311 310 310 309 310 310 308 307 306 305 305 305 304 303 302 301 301 300 299 297 296 295 294 292 291 290 289 288 288 287 286 285 285 284 282 280 278 276 274 274 274 274 274 274 274 274 274 275 275 272 265 255 247 243 242 243 242 240 239 240 245
319 319 318 316 315 314 314 314 312 310 310 309 309 309 307 306 305 305 305 305 303 302 301 301 301 300 299 298 297 295 294 292 291 290 289 289 289 289 288 287 287 286 284 282 280 278 277 276 276 275 275 274 274 274 274 274 275 274 271 262 251 245 241 242 243 243 242 241 243
320 319 318 316 316 315 315 314 312 310 309 309 309 308 306 305 305 304 304 303 302 302 302 301 300 299 298 298 297 295 294 292 291 290 290 290 289 289 289 288 288 287 285 283 281 280 280 280 279 278 276 275 273 273 272 273 274 275 274 270 260 250 243 241 243 244 245 245 244
319 319 318 317 317 316 315 314 312 311 310 309 308 307 306 305 305 304 304 303 302 302 301 301 300 299 297 297 296 295 294 292 291 290 290 290 290 289 289 289 288 287 286 285 284 283 283 283 283 282 280 278 275 273 272 271 273 274 276 275 269 260 251 245 243 244 244 245 246
319 318 318 318 317 316 315 314 313 311 310 309 308 307 306 305 305 305 304 303 303 302 301 301 299 299 298 297 296 295 295 293 292 292 291 291 290 290 290 290 289 288 288 287 286 286 287 287 288 287 286 284 281 278 275 272 271 271 272 273 271 266 259 251 247 245 244 244 245
317 318 318 317 317 316 315 314 313 312 311 309 308 307 307 306 306 305 305 304 304 303 302 300 299 299 298 298 297 297 297 295 294 293 292 291 291 290 290 290 290 290 290 290 289 288 289 289 289 289 289 289 288 288 287 284 281 278 276 275 273 269 264 257 251 247 245 243 244
317 317 317 316 316 315 315 314 314 312 311 310 309 308 308 307 306 306 305 305 304 303 302 301 300 300 300 299 299 299 298 297 295 294 293 292 291 291 291 291 292 293 292 291 290 289 288 288 288 289 291 294 297 300 302 302 300 297 295 292 289 284 277 268 257 250 246 244 243
316 316 315 314 314 315 315 315 314 313 312 311 310 309 309 307 307 306 305 305 304 303 303 302 302 301 301 301 300 299 298 297 296 295 294 293 293 293 293 294 294 293 292 291 290 289 290 291 293 296 300 304 306 307 306 305 303 301 301 300 300 298 294 288 275 262 250 245 243
315 315 315 313 315 315 315 315 315 314 313 312 311 310 309 308 307 307 306 305 304 304 303 303 303 302 301 301 299 298 297 296 296 295 295 295 295 296 296 295 293 292 290 288 289 292 296 300 303 306 308 309 308 306 304 302 299 297 295 294 294 295 296 296 292 282 267 252 246
314 314 314 314 315 316 316 316 315 315 314 313 312 311 310 309 308 307 306 305 305 304 304 304 303 302 301 300 298 297 296 296 296 296 297 297 297 297 297 295 293 291 288 287 290 295 300 303 306 307 307 306 304 302 299 297 295 294 292 290 289 289 290 291 293 290 283 269 255
314 314 315 316 316 316 316 316 316 315 314 313 312 311 310 310 308 307 306 305 305 305 305 304 303 302 300 299 298 297 296 296 296 297 298 298 299 298 298 296 294 292 290 291 295 299 303 304 303 302 301 300 299 298 297 295 293 291 290 288 286 285 284 285 287 289 288 284 270
315 315 316 317 317 317 317 317 316 315 314 313 312 311 310 310 308 307 306 305 305 305 304 303 302 301 299 298 298 298 298 298 298 298 297 297 298 298 298 297 296 294 294 297 300 303 304 303 301 299 297 297 297 297 296 295 293 291 288 285 283 281 279 279 281 284 286 286 280
316 317 318 318 318 318 317 317 316 315 314 313 312 311 310 309 307 306 305 305 305 304 303 302 301 300 299 298 299 299 300 299 299 298 297 297 297 297 297 297 296 296 296 299 301 301 301 300 299 297 296 294 295 294 294 293 292 290 287 283 280 278 276 275 276 278 281 284 283
318 319 319 319 318 318 318 318 316 315 314 312 311 310 309 308 307 306 305 305 305 304 304 303 303 301 300 299 299 299 299 299 298 298 298 298 297 297 297 297 296 296 296 298 298 298 298 298 297 296 295 293 293 293 292 291 289 287 285 282 279 277 275 273 272 273 276 280 284
320 320 320 319 319 318 318 317 315 314 313 311 310 309 308 307 307 306 305 305 305 305 305 304 302 301 300 299 299 299 300 300 300 300 300 299 299 298 297 297 296 296 296 297 297 297 297 297 296 295 294 292 292 291 290 289 287 285 283 281 279 277 276 274 273 272 273 275 279
321 320 320 319 318 318 317 316 314 313 312 310 309 308 308 307 306 306 306 306 305 305 303 301 300 299 299 299 299 299 300 300 301 301 301 300 299 298 297 297 296 296 296 297 297 297 297 296 296 295 294 292 291 291 290 288 286 283 281 279 278 277 277 276 274 273 271 270 273
321 320 319 319 318 317 316 315 313 312 311 309 308 308 307 306 305 305 305 306 305 304 303 302 301 301 301 301 300 300 300 301 302 301 301 300 299 298 298 297 297 296 295 296 296 296 296 295 295 294 293 291 291 290 289 287 285 282 280 277 276 275 273 272 271 270 269 268 268
321 320 319 318 317 316 315 314 313 311 310 309 308 307 306 305 305 306 306 305 304 304 304 303 303 303 302 302 302 301 302 302 302 301 300 299 298 298 297 297 296 295 295 295 295 294 294 294 294 293 293 292 291 291 289 287 285 282 279 277 275 273 272 270 268 268 267 267 266
321 320 318 317 316 314 313 313 312 311 310 309 308 307 306 306 306 306 306 305 305 304 303 302 302 301 301 301 301 301 302 302 301 300 300 299 298 298 297 296 294 294 294 294 293 293 293 293 294 294 294 294 293 291 290 288 286 283 281 279 278 276 273 271 269 267 266 265 264
320 319 317 316 314 313 312 312 311 310 309 308 307 307 307 306 307 307 307 307 305 304 302 301 301 300 300 299 300 300 300 300 300 300 300 300 299 297 296 294 293 293 293 293 293 293 293 294 294 295 295 295 293 291 291 290 288 286 284 283 281 278 275 272 269 266 265 263 261
319 317 315 314 313 312 311 311 310 309 308 307 307 307 307 308 307 307 307 306 305 304 303 302 302 302 301 301 301 301 300 300 300 300 300 299 298 297 295 294 294 294 294 295 295 294 294 294 294 294 294 294 293 293 293 293 291 289 288 286 284 281 278 275 271 267 264 261 259
317 315 314 312 311 310 310 309 309 308 307 307 307 307 307 307 306 306 306 306 306 305 304 304 304 303 303 303 302 302 301 301 301 300 300 298 297 296 295 295 295 295 296 296 296 295 294 293 293 293 293 294 295 296 296 295 293 291 290 288 286 284 281 278 273 269 264 260 257
315 313 312 310 309 309 308 308 307 307 306 306 306 306 306 306 305 305 305 306 306 305 304 304 304 304 304 304 303 301 301 300 300 299 298 297 296 296 296 296 296 296 297 297 296 294 293 292 292 292 293 295 297 298 297 296 294 293 291 290 288 287 284 281 277 272 267 262 257
313 312 310 309 308 307 307 306 305 305 305 305 305 305 305 304 304 304 305 304 303 303 303 303 304 304 304 304 303 301 300 300 299 298 297 296 296 296 296 297 297 297 297 296 295 293 292 291 292 293 294 296 298 298 298 296 295 293 292 291 290 288 286 283 278 274 270 265 258
311 310 309 307 306 305 305 304 303 303 303 304 304 304 304 303 302 302 302 301 301 301 302 302 302 302 302 303 302 301 301 301 299 298 297 296 296 296 296 296 296 296 296 295 294 293 292 293 294 296 298 298 299 299 298 297 294 293 292 291 290 289 288 285 282 279 275 271 264
310 309 307 306 304 304 303 302 302 302 302 302 302 302 302 302 301 300 301 301 302 302 301 300 300 300 301 302 301 301 301 301 301 300 299 297 297 297 296 296 296 296 296 296 295 295 295 296 298 299 301 301 301 300 298 295 293 292 292 292 292 292 292 293 291 289 285 282 277